Regional Weather Roundup
Issued by NWS

Home | Current Version | Previous Version | Graphics & Text | Print | Product List | Glossary Off
Versions: 1 2 3 4 5 6 7 8 9 10 11 12 13 14 15 16 17 18 19 20 21 22 23 24 25 26 27 28 29 30 31 32 33 34 35 36 37 38 39 40 41 42 43 44 45 46 47 48 49 50

000
ASUS43 KTOP 250459
RWRKS

WEATHER ROUNDUP FOR KANSAS
NATIONAL WEATHER SERVICE GOODLAND KS
1200 AM CDT THU MAY 25 2017

NOTE:  "FAIR" INDICATES FEW OR NO CLOUDS BELOW 12,000 FEET WITH NO
SIGNIFICANT WEATHER AND/OR OBSTRUCTIONS TO VISIBILITY.

KSZ001>006-013>018-027>032-041>047-250600-
NORTHWEST KANSAS

CITY           SKY/WX    TMP DP  RH WIND       PRES   REMARKS
GOODLAND       CLEAR     57  46  66 S18       29.59R
HAYS           CLEAR     53  46  77 SE10      29.64S
HILL CITY      CLEAR     54  47  77 SE8       29.63S
RUSSELL        CLEAR     52  45  77 SE10      29.64S
$$

KSZ061>065-074>080-084>089-250600-
SOUTHWEST KANSAS

CITY           SKY/WX    TMP DP  RH WIND       PRES   REMARKS
DODGE CITY     CLEAR     55  45  68 SE16      29.68R
ELKHART          N/A     55  42  61 SE8         N/A
GARDEN CITY    CLEAR     58  42  55 SE16      29.63F
GREAT BEND     CLEAR     54  46  74 SE10      29.67S
LIBERAL        CLEAR     59  50  72 SE14      29.65R
$$

KSZ066>073-081>083-090>101-250600-
SOUTHEAST KANSAS

CITY           SKY/WX    TMP DP  RH WIND       PRES   REMARKS
CHANUTE        CLEAR     52  46  80 E5        29.71S
COFFEYVILLE    CLEAR     51  49  92 S3        29.72R
HUTCHINSON     CLEAR     51  45  79 SE6       29.69S
MEDICINE LODGE   N/A     55  46  71 E7        29.67F
NEWTON         CLEAR     52  45  77 SE7       29.70F
PARSONS        CLEAR     49  47  93 CALM      29.73S
WICHITA INTL   CLEAR     53  45  74 SE7       29.69F
WICHITA JABRA  CLEAR     52  44  74 SE6       29.69F
WINFIELD       CLEAR     54  45  71 E7        29.71F
$$

KSZ007>012-019>026-033>040-048>060-102>105-250600-
NORTHEAST KANSAS

CITY           SKY/WX    TMP DP  RH WIND       PRES   REMARKS
CONCORDIA      CLEAR     50  45  83 S9        29.67F
EMPORIA        CLEAR     49  47  93 S7        29.71S
LAWRENCE       CLEAR     49  49 100 CALM      29.71S
MANHATTAN      CLEAR     48  47  96 CALM      29.70R
OLATHE IND     CLEAR     51  48  89 CALM      29.71S
OLATHE EXE     CLEAR     51  48  89 CALM      29.71R
SALINA         CLEAR     55  46  71 SE6       29.68F
TOPEKA BILLARD CLEAR     52  51  97 CALM      29.70S
TOPEKA FORBES  CLEAR     52  49  89 CALM      29.70S
$$



USA.gov is the U.S. government's official web portal to all federal, state and local government web resources and services.